sat.trackr.live / text

‹ back to catalog

STARLINK-5460

NORAD 55671 · 2023-021AV

PAYLOAD ACTIVE UNKNOWN

§ Identity

Operator
Country
US
Launch date
2023-02-17
Launch site
AFWTR
Launch vehicle
Mass (kg)
RCS (m²)

Purposes: comms

External: N2YO · Heavens-Above · Gunter

§ Orbital elements

Epoch: 2026-05-24T23:00:38.090016Z

Period
96.11 min
Inclination
69.9990°
Eccentricity
0.0002850
Mean motion
14.98332618 rev/d
Perigee alt
570.1 km
Apogee alt
574.0 km
Semi-major
6,950.2 km
B*
5.3134e-5
RAAN
332.3539°
Arg perigee
269.2852°
Mean anomaly
90.7981°
Rev number
18,070

§ Raw data

STARLINK-54601 55671U 23021AV  26144.95877419  .00000541  00000+0  53134-4 0  99982 55671  69.9990 332.3539 0002850 269.2852  90.7981 14.98332618180700

JSON: /api/v1/satellites/55671 · /tle

For live sub-satellite position, see the globe view (requires WebGL).

§ Visibility from observer

Set your observer location to see the next 7 days of passes ≥ 10°. The values pass through the URL so the page stays shareable.

No JS? Fill the form by hand. The geolocation button needs JavaScript.